CW6294 Weather Reports


time (UTC)temp
C
wind
direction
speed
KPH
gust
KPH
rain 1hr
cm
rain 24hr
cm
rain mn
cm
humidity
%
barometer
mb
20260510093746 13 78 0.0 0.0 0.00 0.00 0.00 99 1009.7
20260510092248 13 78 0.0 0.0 0.00 0.00 0.00 99 1009.6
20260510090701 13 78 0.0 0.0 0.00 0.00 0.00 99 1009.5
20260510085156 13 78 0.0 0.0 0.00 0.00 0.00 99 1009.5
20260510083653 13 78 0.0 0.0 0.00 0.00 0.00 98 1009.3
20260510082137 13 78 0.0 0.0 0.00 0.00 0.00 98 1009.0
20260510080634 13 78 0.0 0.0 0.00 0.00 0.00 98 1008.8
20260510075128 14 77 0.0 0.0 0.00 0.00 0.00 97 1008.7
20260510073618 14 77 0.0 0.0 0.00 0.00 0.00 97 1008.5
20260510072112 15 77 0.0 0.0 0.00 0.00 0.00 97 1008.6
20260510070604 15 77 0.0 0.0 0.00 0.00 0.00 96 1008.5
20260510065100 15 77 0.0 0.0 0.00 0.00 0.00 96 1008.3
20260510064252 15 77 0.0 0.0 0.00 0.00 0.00 95 1008.3
20260510062045 15 77 0.0 0.0 0.00 0.00 0.00 95 1008.4
20260510060545 15 77 0.0 0.0 0.00 0.00 0.00 94 1008.3
20260510055044 15 77 0.0 0.0 0.00 0.00 0.00 93 1008.2
20260510053542 16 77 0.0 0.0 0.00 0.00 0.00 91 1008.2
20260510052039 16 77 0.0 0.0 0.00 0.00 0.00 90 1008.3
20260510051226 17 77 0.0 0.0 0.00 0.00 0.00 89 1008.2
20260510044959 17 77 0.0 0.0 0.00 0.00 0.00 89 1008.3
20260510043455 17 77 0.0 0.0 0.00 0.00 0.00 88 1008.3
20260510041947 17 77 0.0 0.0 0.00 0.00 0.00 88 1008.3
20260510040446 17 77 0.0 0.0 0.00 0.00 0.00 88 1008.3
20260510034943 17 77 0.0 0.0 0.00 0.00 0.00 87 1008.3
20260510034104 18 77 0.0 0.0 0.00 0.00 0.00 86 1008.2
20260510031901 18 77 0.0 0.0 0.00 0.00 0.00 85 1008.1
20260510030354 18 77 0.0 0.0 0.00 0.00 0.00 85 1008.2
20260510025546 18 77 0.0 0.0 0.00 0.00 0.00 84 1008.0
20260510024050 18 77 0.0 0.0 0.00 0.00 0.00 83 1007.9
20260510021850 19 77 0.0 0.0 0.00 0.00 0.00 81 1007.9
20260510020347 19 63 0.0 0.0 0.00 0.00 0.00 81 1007.7
20260510014840 19 96 0.0 0.0 0.00 0.00 0.00 80 1007.6
20260510013332 20 72 0.0 0.0 0.00 0.00 0.00 78 1007.3
20260510012521 20 70 0.0 0.0 0.00 0.00 0.00 76 1007.1
20260510010322 20 178 0.0 0.0 0.00 0.00 0.00 74 1006.9
20260510004807 20 178 0.0 0.0 0.00 0.00 0.00 73 1007.0
20260510003307 21 178 0.0 0.0 0.00 0.00 0.00 71 1006.9
20260510001758 21 178 0.0 0.0 0.00 0.00 0.00 70 1006.7
20260510000259 22 178 0.0 0.0 0.00 0.00 0.00 68 1006.6
20260509235442 22 178 0.0 0.0 0.00 0.00 0.00 68 1006.5
20260509233240 22 178 0.0 0.0 0.00 0.00 0.00 67 1006.4
20260509231737 23 182 0.0 0.0 0.00 0.00 0.00 66 1006.4
20260509230914 23 153 0.0 0.0 0.00 0.00 0.00 65 1006.3
20260509225415 23 167 0.0 0.0 0.00 0.00 0.00 65 1006.3
20260509223200 23 139 0.0 0.0 0.00 0.00 0.00 66 1006.4
20260509222351 23 182 0.0 1.6 0.00 0.00 0.00 64 1006.5
20260509220142 23 183 0.0 0.0 0.00 0.00 0.00 64 1006.5
20260509214644 23 140 0.0 0.0 0.00 0.00 0.00 66 1006.3
20260509213819 23 146 3.2 16.1 0.00 0.00 0.00 66 1006.5
20260509211606 23 192 1.6 12.9 0.00 0.00 0.00 65 1006.5
20260509210106 24 174 4.8 16.1 0.00 0.00 0.00 63 1006.4
20260509204606 23 227 3.2 19.3 0.00 0.00 0.00 64 1006.5
20260509203111 24 138 3.2 14.5 0.00 0.00 0.00 63 1006.2
20260509201606 23 170 6.4 17.7 0.00 0.00 0.00 65 1006.4
20260509200108 23 278 4.8 22.5 0.00 0.00 0.00 66 1006.6
20260509194602 23 141 0.0 16.1 0.00 0.00 0.00 68 1006.7
20260509193103 22 158 4.8 16.1 0.00 0.00 0.00 69 1007.1
20260509191602 21 207 0.0 1.6 0.00 0.00 0.00 70 1007.3
20260509184554 21 210 0.0 1.6 0.00 0.00 0.00 70 1007.5
20260509183802 21 168 4.8 19.3 0.00 0.00 0.00 70 1007.8
20260509182253 21 211 4.8 16.1 0.00 0.00 0.00 70 1008.0
20260509180055 21 182 4.8 14.5 0.00 0.00 0.00 69 1008.3
20260509174551 21 190 6.4 19.3 0.00 0.00 0.00 69 1008.4
20260509173050 22 164 4.8 17.7 0.00 0.00 0.00 67 1008.4
20260509171550 21 170 6.4 14.5 0.00 0.00 0.00 69 1008.5
20260509170050 21 192 8.0 17.7 0.00 0.00 0.00 69 1008.4
20260509164551 21 233 6.4 19.3 0.00 0.00 0.00 69 1008.5
20260509163049 20 192 8.0 19.3 0.00 0.00 0.00 70 1008.6
20260509161547 20 175 8.0 19.3 0.00 0.00 0.00 70 1008.6
20260509160046 19 221 6.4 17.7 0.00 0.00 0.00 72 1008.7
20260509154543 19 192 6.4 20.9 0.00 0.00 0.00 72 1009.0
20260509153043 19 209 9.7 22.5 0.00 0.00 0.00 73 1009.0
20260509151543 19 196 11.3 25.7 0.00 0.00 0.00 72 1009.0
20260509150043 18 191 8.0 20.9 0.00 0.00 0.00 73 1009.2
20260509144544 18 150 6.4 19.3 0.00 0.00 0.00 75 1009.5
20260509143045 17 178 4.8 17.7 0.00 0.00 0.00 76 1009.6
20260509141530 17 17 8.0 17.7 0.00 0.00 0.00 77 1009.7
20260509140723 16 227 6.4 17.7 0.00 0.00 0.00 78 1009.7
20260509135224 16 138 4.8 14.5 0.00 0.00 0.00 80 1009.6
20260509133028 15 180 4.8 16.1 0.00 0.00 0.00 80 1009.8
20260509132242 15 149 4.8 14.5 0.00 0.00 0.00 81 1009.7
20260509130029 15 56 6.4 19.3 0.00 0.00 0.00 81 1009.8
20260509124526 15 213 4.8 14.5 0.00 0.00 0.00 80 1009.9
20260509123027 15 251 4.8 14.5 0.00 0.00 0.00 80 1009.8
20260509121521 15 121 4.8 12.9 0.00 0.00 0.00 80 1009.7
20260509120018 15 137 6.4 17.7 0.00 0.00 0.00 80 1009.7
20260509115220 15 175 3.2 16.1 0.00 0.00 0.00 78 1009.7
20260509113708 15 207 1.6 14.5 0.00 0.00 0.00 77 1009.8
20260509111512 15 221 3.2 16.1 0.00 0.00 0.00 76 1009.4
20260509110012 15 142 0.0 0.0 0.00 0.00 0.00 75 1009.5
20260509104510 15 185 0.0 0.0 0.00 0.00 0.00 74 1009.4
20260509103008 15 147 0.0 0.0 0.00 0.00 0.00 73 1009.3
20260509101506 15 205 0.0 0.0 0.00 0.00 0.00 71 1009.2
20260509100007 15 192 0.0 0.0 0.00 0.00 0.00 69 1009.1